{"data":{"norad_id":56699,"epoch":"2026-09-20T17:01:31.689984Z","epoch_age_seconds":96825,"freshness":"FRESH","line1":"1 56699U 23067M   26263.70939456  .00000407  00000+0  24337-4 0  9998","line2":"2 56699  43.0056 260.0963 0001917 288.9919  71.0725 15.27580710185401","mean_motion":15.2758071,"eccentricity":0.0001917,"inclination_deg":43.0056,"raan_deg":260.0963,"arg_perigee_deg":288.9919,"mean_anomaly_deg":71.0725,"bstar":2.4337e-5,"rev_number":18540,"period_min":94.266704899671,"perigee_km":481.731681078,"apogee_km":484.36225901211,"semimajor_km":6861.1839700451,"source":"CELESTRAK","updated_at":"2026-09-21T09:00:33.482846Z"}}